Regional Weather Roundup
Issued by NWS Wilmington, NC

Home | Current Version | Previous Version | Text Only | Print | Product List | Glossary On
Versions: 1 2 3 4 5 6 7 8 9 10 11 12 13 14 15 16 17 18 19 20 21 22 23 24 25 26 27 28 29 30 31 32 33 34 35 36 37 38 39 40 41 42 43 44 45 46 47 48 49 50
000
ASUS42 KILM 030013
RWRILM
RWRILM
REGIONAL HOURLY WEATHER ROUNDUP
NATIONAL WEATHER SERVICE WILMINGTON NC
800 PM EDT SUN AUG 02 2015

NOTE: "FAIR" INDICATES FEW OR NO CLOUDS BELOW 12,000 FEET WITH NO
SIGNIFICANT WEATHER AND/OR OBSTRUCTIONS TO VISIBILITY.

...............WFO WILMINGTON COUNTY WARNING AREA...............

......COASTAL NC AND SC COUNTIES......

CITY           SKY/WX    TMP DP  RH WIND       PRES   REMARKS
WILMINGTON     PTCLDY    81  70  69 S6        29.94S
N MYRTLE BEACH MOCLDY    81  74  79 S7        29.93S
MYRTLE BEACH   MOCLDY    82  72  69 S9        29.94S

......INLAND NC AND SC COUNTIES.......

CITY           SKY/WX    TMP DP  RH WIND       PRES   REMARKS
LUMBERTON      CLEAR     85  69  58 S12G20    29.91R
ELIZABETHTOWN  PTCLDY    84  72  67 S10       29.93R
WHITEVILLE     PTCLDY    81  73  75 SE3       29.93S
FLORENCE       PTCLDY    81  71  71 S7        29.92R
DARLINGTON     CLEAR     82  66  57 S8        29.93R

....................REST OF NORTH CAROLINA......................

.........EASTERN NC.........

CITY           SKY/WX    TMP DP  RH WIND       PRES   REMARKS
CAPE HATTERAS  CLEAR     82  76  81 SW12G20   29.94R
JACKSONVILLE   CLEAR     81  70  69 S10       29.94S
MOREHEAD CITY  CLEAR     80  74  81 SW15      29.94F
KENANSVILLE    CLEAR     82  71  69 CALM      29.94R
NEW BERN       CLEAR     82  73  74 S14G22    29.94S
ELIZABETH CITY PTCLDY    82  73  74 N8        29.90S

.........CENTRAL NC.........

CITY           SKY/WX    TMP DP  RH WIND       PRES   REMARKS
RALEIGH DURHAM PTCLDY    84  56  38 N5        29.93S
ROCKY MOUNT    MOCLDY    89  60  37 N6        29.91S
ROANOKE RAPIDS NOT AVBL
FAYETTEVILLE   CLEAR     85  69  58 S9        29.91R
HOFFMAN        PTCLDY    86  65  49 S10       29.90R

.........WESTERN NC.........

CITY           SKY/WX    TMP DP  RH WIND       PRES   REMARKS
CHARLOTTE      MOCLDY    88  53  30 E7        29.92S
GREENSBORO     PTCLDY    82  56  40 E9        29.94F
HICKORY        NOT AVBL
BOONE          NOT AVBL
ASHEVILLE      NOT AVBL

.....................REST OF SOUTH CAROLINA.....................

.........EASTERN SC.........

CITY           SKY/WX    TMP DP  RH WIND       PRES   REMARKS
CHARLESTON     MOCLDY    80  72  76 S6        29.91F
BEAUFORT MCAS  MOCLDY    79  74  84 CALM      29.89F
HILTON HEAD    MOCLDY    82  77  83 CALM      29.91F HX  91

.........CENTRAL SC.........

CITY           SKY/WX    TMP DP  RH WIND       PRES   REMARKS
COLUMBIA       MOCLDY    84  68  58 SE14      29.90R
ORANGEBURG     CLOUDY    83  67  58 SE9       29.92R
SUMTER SHAW    PTCLDY    80  67  65 S6        29.89S

.........WESTERN SC.........

CITY           SKY/WX    TMP DP  RH WIND       PRES   REMARKS
GREENVILLE     NOT AVBL
ROCK HILL      CLEAR     84  59  42 CALM      29.92R
ANDERSON       MOCLDY    89  58  34 CALM      29.90R
CLEMSON        NOT AVBL
GREENWOOD      CLOUDY    81  69  67 S14       29.93R


...................COASTAL AND OFFSHORE REPORTS..................

................LOCAL PIERS AND NC RESERVE................


STATION/POSITION TIME  SKY/WX   TEMP    WIND        PRES    VSBY
                                AIR SEA DIR/SP/G
                 (UTC)          (F)     (DEG/KT/KT) (MB)    (MI)
JOHNY MRCER PIER 2300            81 86  180/ 16/ 18 1013.4F
NC RESRV MASNBRO NOT AVBL
OCEAN CREST PIER NOT AVBL
SPRINGMAID  PIER 2300            81 87  120/  9/ 10 1013.6F


................COASTAL AND OFFSHORE BUOYS................


STATION/POSITION TIME  SKY/WX   TEMP    WIND        PRES    VSBY
                                AIR SEA DIR/SP/G
                 (UTC)          (F)     (DEG/KT/KT) (MB)    (MI)
DIMNDSHOAL 41025 2350            82 85  220/ 17/ 21 1013.8R
WVE H/P(F/S)=  4/ 4 WND WVE H/P(F/S)=  3/ 4 SWL H/P/D(F/S/D)=  2/190/ 7

CAPE LOOKOUT     0000            80     200/ 13/ 16 1013.9F
ONSLOW BAY 41036 NOT AVBL
5 WRITEBCH 41038 2308            81 84  190/ 14/ 19 1013.7F
MASONBORO  41110 2319               84                N/A
WVE H/P(F/S)=  4/ 7 WND WVE H/P(F/S)=  3/ 7 SWL H/P/D(F/S/D)=  2/120/12

WILM HARBR 41108 2311               83                N/A
WVE H/P(F/S)=  4/ 6 WND WVE H/P(F/S)=  3/ 6

27WRITEBCH 41037 2300            77 83  190/ 14/ 16   N/A
FRYING PAN 41013 2350            81 83  180/ 16/ 17 1014.4R
WVE H/P(F/S)=  4/ 6 WND WVE H/P(F/S)=  3/ 6 SWL H/P/D(F/S/D)=  2/120/11

SUNST NRSH 41024 2308            82     170/ 12/ 17 1013.4F
CAPRS NRSH 41029 2308            79     190/  4/  6 1013.0F
EDISTO     41004 2350            78 83  160/ 23/ 29 1012.4F
WVE H/P(F/S)=  3/ 5 WND WVE H/P(F/S)=  3/ 5 SWL H/P/D(F/S/D)=  2/11



..........OFFSHORE BUOYS BEYOND 100 NM OFFSHORE...........
.....IN A TRIANGLE---HAT TO BERMUDA TO BAHAMAS TO HAT.....


STATION/POSITION TIME  SKY/WX   TEMP    WIND        PRES    VSBY
                                AIR SEA DIR/SP/G
                 (UTC)          (F)     (DEG/KT/KT) (MB)    (MI)
150E HAT   41001 2300            81 82  210/ 19/ 25 1014.5S
W BERMUDA  41048 2350            82 82  180/ 10/ 12 1018.5F
WVE H/P(F/S)=  4/ 8 WND WVE H/P(F/S)=  2/ 4 SWL H/P/D(F/S/D)=  3/280/ 8

ATLANTIC S 41049 2350            85 86  100/ 12/ 14 1021.2R
WVE H/P(F/S)=  4/ 6 WND WVE H/P(F/S)=  2/ 5 SWL H/P/D(F/S/D)=  3/140/ 6

E BAHAMAS  41046 2350            84 85   90/ 14/ 17 1017.2R
WVE H/P(F/S)=  4/ 8 WND WVE H/P(F/S)=  3/ 6 SWL H/P/D(F/S/D)=  3/110/ 8

NE BAHAMAS 41047 2350            84 85  110/  8/ 10 1017.8R
WVE H/P(F/S)=  3/ 7 WND WVE H/P(F/S)=  2/ 4 SWL H/P/D(F/S/D)=  3/140/ 7

120E CANVRL41010 2320            83 84  170/ 14/ 16 1014.9R

END


USA.gov is the U.S. government's official web portal to all federal, state and local government web resources and services.